QPF
0.00 0.00 0.00 0.01 0.00 0.03 0.06 0.05 0.02 0.01 0.01 0.01 0.01 0.01 0.01 0.04 0.07 0.02 0.00 0.01 0.03 0.03 0.01 0.02 0.01 0.01 0.01 0.01 0.01 0.01 0.03 0.03 0.00 0.00 0.01 0.00 0.00 0.00 0.01 0.00 0.00 0.00 0.00 0.00 0.00 0.00 0.00 0.00 0.00 0.00 0.00 0.00 0.00 0.00
0.00 0.00 0.01 0.01 0.01 0.07 0.10 0.04 0.01 0.00 0.01 0.00 0.00 0.01 0.04 0.06 0.07 0.03 0.03 0.03 0.07 0.04 0.02 0.01 0.00 0.01 0.00 0.00 0.00 0.01 0.01 0.00 0.00 0.00 0.00 0.00 0.00 0.00 0.01 0.00 0.01 0.00 0.00 0.00 0.00 0.00 0.00 0.00 0.00 0.00 0.00 0.00 0.00 0.00
0.00 0.00 0.01 0.01 0.01 0.09 0.10 0.04 0.01 0.00 0.00 0.00 0.01 0.02 0.06 0.07 0.06 0.10 0.14 0.16 0.09 0.02 0.06 0.06 0.03 0.00 0.00 0.00 0.01 0.01 0.01 0.00 0.00 0.00 0.00 0.00 0.00 0.00 0.00 0.00 0.00 0.00 0.00 0.00 0.00 0.00 0.00 0.00 0.00 0.00 0.00 0.00 0.00 0.00
0.00 0.00 0.01 0.02 0.02 0.06 0.04 0.02 0.01 0.00 0.00 0.00 0.04 0.05 0.04 0.07 0.09 0.13 0.15 0.07 0.01 0.00 0.08 0.09 0.00 0.00 0.00 0.00 0.00 0.00 0.00 0.00 0.00 0.00 0.00 0.00 0.00 0.00 0.00 0.00 0.00 0.00 0.00 0.00 0.00 0.00 0.00 0.00 0.00 0.00 0.00 0.00 0.00 0.00
0.00 0.00 0.02 0.02 0.06 0.07 0.02 0.01 0.00 0.00 0.00 0.01 0.06 0.01 0.06 0.08 0.08 0.11 0.08 0.01 0.00 0.00 0.03 0.02 0.00 0.00 0.00 0.00 0.00 0.00 0.00 0.00 0.00 0.00 0.00 0.00 0.00 0.00 0.00 0.00 0.00 0.00 0.00 0.00 0.00 0.00 0.00 0.00 0.00 0.00 0.00 0.00 0.00 0.00
0.01 0.01 0.02 0.05 0.12 0.07 0.02 0.00 0.00 0.00 0.00 0.04 0.01 0.04 0.08 0.11 0.11 0.09 0.02 0.00 0.00 0.00 0.00 0.00 0.00 0.00 0.00 0.00 0.00 0.00 0.00 0.00 0.00 0.00 0.00 0.00 0.00 0.00 0.00 0.00 0.00 0.00 0.00 0.00 0.00 0.00 0.00 0.00 0.00 0.00 0.00 0.00 0.00 0.00
0.01 0.01 0.04 0.13 0.15 0.04 0.01 0.00 0.00 0.00 0.03 0.02 0.01 0.03 0.04 0.03 0.00 0.00 0.00 0.00 0.00 0.00 0.00 0.00 0.00 0.00 0.00 0.00 0.00 0.00 0.00 0.00 0.00 0.00 0.00 0.00 0.00 0.00 0.00 0.00 0.00 0.00 0.00 0.00 0.00 0.00 0.00 0.00 0.00 0.00 0.00 0.00 0.00 0.00
0.01 0.07 0.12 0.14 0.09 0.01 0.00 0.00 0.00 0.01 0.06 0.00 0.00 0.01 0.01 0.00 0.00 0.00 0.00 0.00 0.00 0.00 0.00 0.00 0.00 0.00 0.00 0.00 0.00 0.00 0.00 0.00 0.00 0.00 0.00 0.00 0.00 0.00 0.00 0.00 0.00 0.00 0.00 0.00 0.00 0.00 0.00 0.00 0.00 0.00 0.00 0.00 0.00 0.00
0.04 0.16 0.16 0.07 0.03 0.00 0.00 0.00 0.00 0.06 0.03 0.00 0.00 0.00 0.00 0.00 0.00 0.00 0.00 0.00 0.00 0.00 0.00 0.00 0.00 0.00 0.00 0.00 0.00 0.00 0.00 0.00 0.00 0.00 0.00 0.00 0.00 0.00 0.00 0.00 0.00 0.00 0.00 0.00 0.00 0.00 0.00 0.00 0.00 0.00 0.00 0.00 0.00 0.00
0.15 0.16 0.10 0.04 0.00 0.00 0.00 0.00 0.02 0.05 0.00 0.00 0.00 0.00 0.00 0.00 0.00 0.00 0.00 0.00 0.00 0.00 0.00 0.00 0.00 0.00 0.00 0.00 0.00 0.00 0.00 0.00 0.00 0.00 0.00 0.00 0.00 0.00 0.00 0.00 0.00 0.00 0.00 0.00 0.00 0.00 0.00 0.00 0.00 0.00 0.00 0.00 0.00 0.00
0.14 0.06 0.04 0.01 0.00 0.00 0.00 0.00 0.01 0.01 0.00 0.00 0.00 0.00 0.00 0.00 0.00 0.00 0.00 0.00 0.00 0.00 0.00 0.00 0.00 0.00 0.00 0.00 0.00 0.00 0.00 0.00 0.00 0.00 0.00 0.00 0.00 0.00 0.00 0.00 0.00 0.00 0.00 0.00 0.00 0.00 0.00 0.00 0.00 0.00 0.00 0.00 0.00 0.00
0.05 0.04 0.03 0.02 0.00 0.00 0.00 0.00 0.00 0.00 0.00 0.00 0.00 0.00 0.00 0.00 0.00 0.00 0.00 0.00 0.00 0.00 0.00 0.00 0.00 0.00 0.00 0.00 0.00 0.00 0.00 0.00 0.00 0.00 0.00 0.00 0.00 0.00 0.00 0.00 0.00 0.00 0.00 0.00 0.00 0.00 0.00 0.00 0.00 0.00 0.00 0.00 0.00 0.00
0.02 0.02 0.02 0.01 0.00 0.00 0.00 0.00 0.00 0.00 0.00 0.00 0.00 0.00 0.00 0.00 0.00 0.00 0.00 0.00 0.00 0.00 0.00 0.00 0.00 0.00 0.00 0.00 0.00 0.00 0.00 0.00 0.00 0.00 0.00 0.00 0.00 0.00 0.00 0.00 0.00 0.00 0.00 0.00 0.00 0.00 0.00 0.00 0.00 0.00 0.00 0.00 0.00 0.00
0.01 0.01 0.01 0.00 0.00 0.00 0.00 0.00 0.00 0.00 0.00 0.00 0.00 0.00 0.00 0.00 0.00 0.00 0.00 0.00 0.00 0.00 0.00 0.00 0.00 0.00 0.00 0.00 0.00 0.00 0.00 0.00 0.00 0.00 0.00 0.00 0.00 0.00 0.00 0.00 0.00 0.00 0.00 0.00 0.00 0.00 0.00 0.00 0.00 0.00 0.00 0.00 0.00 0.00
0.00 0.00 0.01 0.01 0.01 0.00 0.00 0.00 0.00 0.00 0.00 0.00 0.00 0.00 0.00 0.00 0.00 0.00 0.00 0.00 0.00 0.00 0.00 0.00 0.00 0.00 0.00 0.00 0.00 0.00 0.00 0.00 0.00 0.00 0.00 0.00 0.00 0.00 0.00 0.00 0.00 0.00 0.00 0.00 0.00 0.00 0.00 0.00 0.00 0.00 0.00 0.00 0.00 0.00
0.00 0.01 0.01 0.00 0.00 0.00 0.00 0.00 0.00 0.00 0.00 0.00 0.00 0.00 0.00 0.00 0.00 0.00 0.00 0.00 0.00 0.00 0.00 0.00 0.00 0.00 0.00 0.00 0.00 0.00 0.00 0.00 0.00 0.00 0.00 0.00 0.00 0.00 0.00 0.00 0.00 0.00 0.00 0.00 0.00 0.00 0.00 0.00 0.00 0.00 0.00 0.00 0.00 0.00
0.00 0.00 0.00 0.00 0.00 0.00 0.00 0.00 0.00 0.00 0.00 0.00 0.00 0.00 0.00 0.00 0.00 0.00 0.00 0.00 0.00 0.00 0.00 0.00 0.00 0.00 0.00 0.00 0.00 0.00 0.00 0.00 0.00 0.00 0.00 0.00 0.00 0.00 0.00 0.00 0.00 0.00 0.00 0.00 0.00 0.00 0.00 0.00 0.00 0.00 0.00 0.00 0.00 0.00
0.00 0.00 0.00 0.00 0.00 0.00 0.00 0.00 0.00 0.00 0.00 0.01 0.01 0.01 0.00 0.00 0.00 0.00 0.00 0.00 0.00 0.00 0.00 0.00 0.00 0.00 0.00 0.00 0.00 0.00 0.00 0.00 0.00 0.00 0.00 0.00 0.00 0.00 0.00 0.00 0.00 0.00 0.00 0.00 0.00 0.00 0.00 0.00 0.00 0.00 0.00 0.00 0.00 0.00
0.00 0.00 0.00 0.00 0.00 0.00 0.00 0.00 0.00 0.00 0.02 0.01 0.00 0.00 0.00 0.00 0.00 0.00 0.00 0.00 0.00 0.00 0.00 0.00 0.00 0.00 0.01 0.00 0.00 0.00 0.00 0.00 0.00 0.00 0.00 0.00 0.00 0.00 0.00 0.00 0.00 0.00 0.00 0.00 0.00 0.00 0.00 0.00 0.00 0.00 0.00 0.00 0.00 0.00
0.00 0.00 0.00 0.00 0.00 0.00 0.00 0.00 0.00 0.00 0.01 0.01 0.00 0.00 0.00 0.00 0.00 0.00 0.00 0.00 0.00 0.00 0.01 0.00 0.01 0.02 0.02 0.00 0.00 0.00 0.00 0.00 0.00 0.00 0.00 0.00 0.00 0.00 0.00 0.00 0.00 0.00 0.00 0.00 0.00 0.00 0.00 0.00 0.00 0.00 0.00 0.00 0.00 0.00
0.00 0.00 0.00 0.00 0.00 0.00 0.00 0.00 0.00 0.00 0.00 0.00 0.00 0.00 0.01 0.01 0.02 0.03 0.01 0.00 0.00 0.01 0.01 0.03 0.03 0.04 0.01 0.00 0.00 0.00 0.00 0.00 0.00 0.00 0.00 0.00 0.00 0.00 0.00 0.00 0.00 0.00 0.00 0.00 0.00 0.00 0.00 0.00 0.00 0.00 0.00 0.00 0.00 0.00
0.00 0.00 0.00 0.00 0.00 0.00 0.00 0.00 0.00 0.00 0.00 0.00 0.00 0.00 0.00 0.01 0.02 0.03 0.00 0.00 0.01 0.04 0.02 0.01 0.02 0.01 0.00 0.00 0.00 0.00 0.00 0.00 0.00 0.00 0.00 0.00 0.00 0.00 0.00 0.00 0.00 0.00 0.00 0.00 0.00 0.00 0.00 0.00 0.00 0.00 0.00 0.00 0.00 0.00
0.00 0.00 0.00 0.00 0.00 0.00 0.00 0.00 0.00 0.00 0.00 0.00 0.00 0.00 0.00 0.00 0.00 0.01 0.01 0.01 0.02 0.04 0.01 0.00 0.00 0.00 0.00 0.00 0.00 0.00 0.00 0.00 0.00 0.00 0.00 0.00 0.00 0.00 0.00 0.00 0.00 0.00 0.00 0.00 0.00 0.00 0.00 0.00 0.00 0.00 0.00 0.00 0.01 0.02
0.00 0.00 0.00 0.00 0.00 0.00 0.00 0.00 0.00 0.00 0.00 0.00 0.00 0.00 0.00 0.00 0.00 0.01 0.01 0.01 0.02 0.01 0.00 0.00 0.00 0.00 0.00 0.00 0.00 0.00 0.00 0.00 0.00 0.00 0.00 0.00 0.00 0.00 0.00 0.00 0.00 0.00 0.01 0.01 0.01 0.01 0.01 0.01 0.00 0.01 0.01 0.01 0.02 0.02
0.00 0.00 0.00 0.00 0.00 0.00 0.00 0.00 0.00 0.00 0.00 0.00 0.00 0.00 0.00 0.00 0.00 0.00 0.00 0.01 0.01 0.00 0.00 0.00 0.00 0.00 0.00 0.00 0.00 0.00 0.00 0.00 0.00 0.00 0.00 0.00 0.00 0.00 0.00 0.00 0.00 0.00 0.01 0.01 0.01 0.00 0.01 0.02 0.02 0.02 0.02 0.01 0.02 0.02
0.00 0.00 0.00 0.00 0.00 0.00 0.00 0.00 0.00 0.00 0.00 0.00 0.00 0.00 0.00 0.00 0.00 0.00 0.01 0.01 0.01 0.00 0.00 0.00 0.00 0.00 0.00 0.00 0.00 0.00 0.00 0.01 0.00 0.00 0.00 0.00 0.00 0.00 0.00 0.00 0.00 0.00 0.01 0.01 0.00 0.00 0.01 0.02 0.02 0.02 0.03 0.03 0.01 0.01
0.00 0.00 0.00 0.00 0.00 0.00 0.00 0.00 0.00 0.00 0.00 0.00 0.00 0.00 0.00 0.00 0.00 0.00 0.00 0.00 0.00 0.00 0.00 0.00 0.00 0.00 0.00 0.00 0.00 0.00 0.00 0.00 0.00 0.00 0.00 0.00 0.00 0.00 0.01 0.00 0.00 0.00 0.00 0.00 0.00 0.00 0.00 0.01 0.01 0.01 0.01 0.02 0.03 0.02
0.00 0.00 0.00 0.00 0.00 0.00 0.00 0.00 0.00 0.00 0.03 0.05 0.00 0.00 0.00 0.00 0.00 0.01 0.01 0.00 0.00 0.00 0.00 0.00 0.00 0.00 0.00 0.00 0.00 0.00 0.00 0.00 0.00 0.00 0.00 0.00 0.00 0.01 0.01 0.01 0.01 0.00 0.00 0.01 0.00 0.00 0.00 0.00 0.00 0.01 0.01 0.01 0.02 0.02
0.00 0.00 0.00 0.00 0.00 0.00 0.00 0.00 0.00 0.00 0.00 0.00 0.00 0.00 0.00 0.00 0.01 0.01 0.00 0.00 0.00 0.00 0.01 0.00 0.00 0.00 0.00 0.01 0.01 0.00 0.01 0.00 0.00 0.00 0.00 0.00 0.00 0.00 0.00 0.00 0.00 0.00 0.00 0.01 0.02 0.02 0.01 0.01 0.01 0.00 0.01 0.01 0.01 0.00
0.00 0.00 0.00 0.00 0.00 0.00 0.00 0.00 0.00 0.00 0.00 0.00 0.00 0.00 0.00 0.00 0.01 0.00 0.00 0.01 0.01 0.01 0.02 0.01 0.00 0.01 0.01 0.00 0.00 0.00 0.00 0.00 0.00 0.00 0.00 0.00 0.00 0.00 0.00 0.00 0.00 0.00 0.00 0.00 0.01 0.01 0.00 0.00 0.00 0.00 0.00 0.00 0.00 0.00
0.00 0.00 0.00 0.00 0.00 0.00 0.00 0.00 0.00 0.00 0.00 0.00 0.00 0.00 0.00 0.00 0.00 0.00 0.00 0.00 0.01 0.00 0.01 0.01 0.00 0.01 0.01 0.01 0.00 0.00 0.00 0.01 0.01 0.01 0.00 0.00 0.00 0.00 0.00 0.00 0.00 0.00 0.00 0.00 0.00 0.00 0.00 0.00 0.00 0.00 0.00 0.00 0.00 0.00
0.01 0.01 0.01 0.02 0.01 0.00 0.00 0.00 0.00 0.00 0.00 0.00 0.00 0.00 0.00 0.00 0.00 0.00 0.00 0.01 0.01 0.01 0.01 0.01 0.00 0.01 0.01 0.01 0.01 0.01 0.01 0.01 0.01 0.02 0.01 0.00 0.00 0.00 0.00 0.00 0.00 0.00 0.00 0.00 0.00 0.00 0.00 0.00 0.00 0.00 0.00 0.00 0.00 0.00
0.00 0.00 0.00 0.01 0.01 0.01 0.00 0.00 0.00 0.00 0.01 0.00 0.01 0.01 0.01 0.00 0.00 0.00 0.00 0.00 0.00 0.00 0.00 0.00 0.01 0.01 0.01 0.01 0.01 0.02 0.01 0.02 0.02 0.01 0.01 0.00 0.00 0.00 0.00 0.00 0.00 0.00 0.00 0.00 0.00 0.00 0.00 0.00 0.00 0.00 0.00 0.00 0.00 0.00
MSLP
1005.32 1005.82 1006.16 1006.49 1006.94 1007.38 1007.70 1007.88 1008.09 1008.26 1008.49 1008.89 1009.37 1009.82 1010.01 1010.25 1010.30 1010.26 1009.89 1009.72 1009.77 1009.42 1008.76 1008.15 1008.12 1008.36 1008.79 1009.40 1010.19 1010.94 1011.97 1012.77 1012.84 1012.59 1012.71 1012.37 1011.84 1011.52 1011.87 1012.08 1012.60 1013.60 1014.79 1015.81 1016.37 1016.64 1016.31 1015.46 1015.84 1016.43 1016.75 1017.23 1018.10 1019.45
1005.08 1005.45 1005.77 1006.10 1006.49 1006.97 1007.21 1007.45 1007.74 1008.00 1008.32 1008.78 1009.12 1009.39 1009.64 1009.71 1009.78 1009.89 1009.82 1009.00 1009.10 1009.24 1008.92 1008.31 1008.35 1008.13 1008.13 1008.75 1009.39 1010.36 1010.80 1011.43 1011.69 1012.02 1012.35 1012.04 1012.02 1011.91 1012.18 1012.68 1012.67 1013.62 1014.17 1015.27 1016.39 1016.33 1016.10 1015.96 1016.02 1016.25 1016.70 1017.63 1018.66 1019.38
1004.77 1005.12 1005.47 1005.74 1006.15 1006.68 1006.99 1007.25 1007.48 1007.84 1008.21 1008.53 1008.79 1009.04 1009.13 1009.14 1009.38 1009.59 1009.39 1008.78 1008.80 1008.96 1009.50 1009.23 1008.76 1008.53 1008.43 1008.78 1009.28 1010.25 1010.85 1010.85 1011.12 1010.80 1011.52 1011.76 1011.97 1012.16 1012.82 1012.93 1013.36 1013.87 1014.29 1015.42 1016.51 1016.76 1016.69 1016.63 1016.46 1016.80 1017.18 1017.97 1018.76 1019.35
1004.55 1004.90 1005.22 1005.49 1006.04 1006.36 1006.87 1007.05 1007.31 1007.78 1008.08 1008.30 1008.49 1008.61 1008.68 1008.64 1008.76 1008.81 1008.82 1008.01 1008.12 1008.75 1009.64 1009.92 1008.63 1008.24 1008.42 1008.56 1009.01 1009.35 1009.56 1009.99 1010.08 1010.65 1011.38 1011.96 1012.12 1011.90 1012.43 1012.65 1013.31 1013.77 1014.46 1015.85 1016.83 1017.05 1017.22 1017.09 1017.06 1017.39 1018.17 1018.66 1019.41 1020.26
1004.32 1004.64 1004.90 1005.35 1005.82 1006.18 1006.44 1006.69 1007.16 1007.61 1007.89 1008.14 1008.30 1008.37 1008.14 1007.87 1007.37 1007.74 1007.86 1007.68 1007.57 1008.06 1009.29 1009.57 1008.99 1008.76 1008.39 1008.25 1009.01 1009.18 1009.51 1009.93 1010.67 1011.35 1011.84 1012.35 1012.03 1012.13 1012.54 1012.95 1013.57 1013.70 1014.55 1015.44 1015.76 1015.94 1016.56 1017.00 1017.36 1017.73 1018.45 1019.21 1019.79 1020.45
1004.03 1004.32 1004.57 1005.25 1005.51 1005.83 1005.99 1006.53 1007.06 1007.49 1007.84 1008.04 1008.16 1007.95 1007.42 1007.29 1007.14 1007.66 1008.29 1007.71 1007.06 1007.11 1008.41 1009.97 1009.93 1009.59 1009.25 1009.11 1009.30 1009.63 1009.94 1010.38 1010.96 1011.60 1012.36 1012.33 1012.10 1012.32 1013.26 1013.88 1013.78 1013.65 1013.93 1014.23 1014.91 1015.70 1016.42 1016.84 1017.48 1018.01 1018.75 1019.47 1020.08 1020.81
1003.71 1003.99 1004.47 1004.89 1005.40 1005.23 1005.83 1006.47 1007.05 1007.40 1007.73 1008.07 1008.08 1008.09 1007.53 1006.48 1007.28 1007.21 1006.97 1007.14 1007.04 1007.08 1008.65 1010.30 1010.71 1010.20 1009.75 1009.89 1010.35 1010.48 1010.61 1011.18 1011.46 1012.25 1012.61 1012.76 1012.64 1012.55 1013.47 1014.09 1014.09 1014.07 1014.24 1014.70 1015.17 1016.04 1017.23 1017.42 1018.03 1018.37 1019.12 1019.75 1020.45 1021.25
1003.49 1004.04 1004.42 1004.99 1004.77 1005.23 1005.91 1006.52 1007.02 1007.52 1007.81 1007.86 1007.64 1007.23 1007.08 1006.88 1006.86 1006.73 1006.93 1006.83 1006.82 1007.37 1008.60 1010.51 1011.40 1011.20 1010.56 1011.17 1011.47 1011.48 1011.76 1012.04 1012.42 1012.86 1012.98 1013.26 1013.22 1013.32 1013.88 1013.82 1014.13 1014.51 1014.87 1015.34 1015.67 1015.88 1016.50 1017.30 1018.20 1018.80 1019.58 1020.32 1021.19 1022.02
1003.45 1003.87 1004.41 1004.32 1004.76 1005.43 1006.04 1006.58 1007.09 1007.54 1007.57 1007.67 1007.55 1007.09 1007.33 1007.21 1007.36 1007.39 1006.75 1006.62 1006.65 1007.56 1009.09 1010.44 1011.46 1011.94 1011.16 1011.81 1012.08 1012.30 1012.54 1013.46 1013.49 1013.59 1013.67 1013.70 1014.05 1013.90 1013.47 1013.86 1014.15 1014.43 1014.64 1015.31 1015.94 1016.44 1017.15 1017.89 1018.66 1019.41 1020.16 1020.98 1021.74 1022.69
1003.14 1003.71 1003.60 1004.21 1005.08 1005.70 1006.29 1006.86 1007.27 1007.46 1007.75 1007.69 1007.60 1007.40 1007.85 1007.98 1007.47 1007.06 1007.14 1007.23 1007.61 1008.39 1009.32 1010.84 1011.29 1011.66 1011.69 1012.44 1013.10 1013.48 1013.75 1014.20 1014.37 1014.36 1013.99 1014.22 1014.48 1013.61 1013.08 1013.23 1013.61 1014.18 1014.54 1015.27 1016.24 1017.25 1017.84 1018.57 1019.23 1019.86 1020.54 1021.16 1021.91 1022.87
1003.25 1003.23 1003.97 1004.78 1005.46 1006.09 1006.63 1007.04 1007.64 1007.63 1007.64 1007.63 1008.12 1008.59 1008.25 1007.62 1007.74 1008.51 1009.27 1009.41 1009.51 1010.18 1010.54 1011.15 1011.28 1011.59 1012.06 1012.72 1013.44 1014.02 1014.43 1014.63 1014.91 1014.84 1014.70 1015.03 1014.75 1013.91 1013.19 1013.36 1013.79 1014.19 1014.60 1015.19 1015.69 1016.52 1017.30 1018.19 1019.21 1020.05 1020.90 1021.47 1022.20 1022.99
1002.96 1003.79 1004.68 1005.35 1005.98 1006.49 1006.93 1007.29 1007.78 1007.89 1007.59 1007.40 1007.49 1008.18 1008.35 1008.89 1009.87 1010.37 1010.91 1010.62 1010.50 1011.11 1011.20 1011.54 1011.76 1011.96 1012.43 1012.54 1013.65 1014.38 1014.73 1015.05 1015.25 1015.09 1015.38 1015.57 1014.71 1013.91 1013.68 1013.88 1014.23 1014.52 1014.94 1015.63 1016.09 1016.93 1017.72 1018.53 1019.31 1020.14 1020.98 1021.81 1022.50 1023.21
1004.13 1004.85 1005.35 1005.87 1006.41 1006.93 1007.38 1007.63 1007.69 1007.60 1007.49 1007.70 1008.08 1009.34 1010.02 1011.05 1011.44 1011.70 1011.81 1011.65 1011.44 1011.28 1011.43 1011.71 1012.20 1012.42 1012.76 1013.16 1014.26 1014.56 1015.14 1015.77 1015.30 1016.01 1016.07 1015.58 1014.79 1014.37 1014.33 1014.56 1014.95 1015.11 1015.47 1016.03 1016.76 1017.30 1018.03 1019.00 1019.80 1020.53 1021.45 1021.99 1022.73 1023.72
1005.04 1005.72 1006.25 1006.72 1007.22 1007.67 1007.84 1007.94 1007.82 1007.82 1007.98 1009.01 1010.12 1011.10 1011.68 1012.09 1012.17 1012.16 1012.02 1011.94 1011.74 1011.59 1011.69 1012.06 1012.71 1013.16 1013.80 1014.27 1014.76 1015.29 1015.61 1015.55 1016.02 1016.37 1016.22 1015.85 1015.39 1015.18 1015.21 1015.35 1015.63 1016.29 1016.59 1017.13 1017.64 1018.21 1018.87 1019.66 1020.50 1021.22 1021.83 1022.23 1023.13 1024.29
1006.04 1006.61 1007.09 1007.70 1008.18 1008.25 1008.20 1008.04 1007.91 1008.09 1008.92 1010.25 1010.97 1012.27 1012.62 1012.61 1012.61 1012.53 1012.38 1012.22 1012.05 1011.77 1011.85 1012.57 1013.21 1013.66 1014.42 1014.77 1014.97 1015.53 1015.87 1015.72 1015.76 1015.84 1015.98 1016.00 1015.97 1015.88 1016.09 1016.40 1016.70 1017.19 1017.68 1018.25 1018.57 1019.26 1019.90 1020.56 1021.23 1022.13 1022.82 1022.85 1023.17 1024.35
1007.00 1007.59 1008.25 1008.51 1008.57 1008.40 1008.26 1008.32 1008.52 1008.93 1010.17 1011.35 1012.23 1012.74 1012.95 1013.10 1013.31 1013.03 1013.02 1012.75 1012.16 1012.29 1012.24 1012.70 1013.52 1014.17 1014.49 1014.61 1015.10 1015.30 1015.39 1015.54 1015.69 1015.97 1016.43 1016.53 1016.67 1016.92 1017.14 1017.38 1017.88 1018.13 1018.38 1018.94 1019.42 1019.94 1020.67 1021.34 1021.97 1022.76 1023.46 1023.94 1024.12 1024.46
1007.78 1008.41 1008.67 1008.65 1008.49 1008.38 1008.32 1008.92 1009.55 1010.78 1011.91 1012.59 1013.20 1013.07 1013.05 1013.35 1013.52 1013.50 1013.19 1012.89 1012.43 1012.65 1013.15 1013.41 1013.76 1014.08 1014.34 1014.53 1015.00 1015.18 1015.37 1015.60 1015.97 1016.56 1016.89 1017.11 1017.28 1017.54 1017.85 1018.22 1018.64 1018.99 1019.36 1019.77 1020.26 1020.84 1021.50 1022.10 1022.63 1023.27 1024.17 1024.78 1024.77 1025.00
1008.70 1009.12 1009.17 1009.24 1009.15 1009.23 1009.61 1010.15 1011.19 1012.18 1013.11 1013.46 1013.49 1013.55 1013.58 1013.70 1013.84 1013.90 1013.48 1013.07 1012.83 1013.01 1013.32 1013.46 1013.45 1014.14 1014.64 1014.89 1015.28 1015.37 1015.92 1016.52 1017.00 1017.45 1017.76 1018.00 1018.01 1018.08 1018.27 1018.68 1019.22 1019.67 1020.10 1020.55 1020.97 1021.53 1022.14 1022.53 1023.09 1023.66 1024.19 1024.84 1025.28 1025.60
1009.47 1009.60 1009.52 1009.56 1009.66 1010.27 1011.24 1011.75 1012.10 1013.14 1013.76 1013.84 1013.87 1013.80 1013.95 1014.12 1014.05 1013.84 1013.59 1013.19 1013.01 1012.99 1013.33 1013.92 1014.63 1015.17 1015.37 1015.35 1015.41 1015.88 1016.59 1017.04 1017.70 1018.20 1018.52 1018.65 1018.64 1018.73 1018.87 1019.17 1019.59 1020.04 1020.50 1020.93 1021.44 1021.94 1022.43 1022.65 1022.96 1023.62 1024.18 1024.75 1025.29 1025.66
1009.95 1009.94 1009.80 1009.79 1009.92 1010.95 1012.03 1012.62 1012.58 1013.42 1014.07 1014.27 1014.13 1014.23 1014.27 1014.34 1014.28 1014.02 1013.77 1013.73 1013.73 1013.87 1014.84 1015.56 1016.15 1016.34 1016.29 1016.33 1016.27 1016.61 1016.89 1017.34 1017.77 1018.47 1019.01 1019.23 1019.16 1019.22 1019.42 1019.67 1020.04 1020.39 1020.74 1021.11 1021.47 1021.91 1022.46 1022.90 1023.20 1023.66 1024.11 1024.57 1025.23 1025.69
1010.33 1010.42 1010.17 1010.12 1010.87 1011.64 1012.88 1013.50 1013.78 1014.01 1014.26 1014.47 1014.51 1014.56 1014.60 1014.49 1014.50 1014.53 1014.78 1014.63 1015.05 1016.03 1016.55 1016.83 1017.08 1017.27 1017.17 1017.14 1017.20 1017.19 1017.38 1017.42 1017.79 1017.99 1018.53 1019.21 1019.46 1019.57 1019.82 1020.04 1020.33 1020.66 1020.98 1021.30 1021.61 1021.96 1022.27 1022.64 1023.00 1023.43 1023.96 1024.43 1024.87 1025.33
1011.12 1010.68 1011.19 1011.36 1012.56 1013.19 1013.89 1014.09 1014.27 1014.33 1014.65 1014.73 1014.63 1014.74 1015.04 1015.17 1015.24 1015.29 1015.33 1015.85 1017.04 1017.57 1017.57 1017.70 1017.71 1017.76 1017.66 1017.88 1017.99 1017.97 1018.06 1018.07 1018.12 1018.36 1018.74 1019.15 1019.63 1019.95 1020.18 1020.37 1020.62 1020.84 1021.07 1021.21 1021.38 1021.71 1022.00 1022.16 1022.56 1023.18 1023.79 1024.30 1024.85 1025.26
1011.33 1011.68 1012.55 1013.45 1014.36 1015.01 1015.43 1014.63 1014.89 1014.99 1015.21 1015.20 1015.09 1015.50 1015.75 1015.74 1015.70 1015.51 1016.48 1017.54 1018.27 1018.40 1018.23 1018.10 1018.06 1018.11 1018.24 1018.42 1018.47 1018.61 1018.61 1018.64 1019.15 1019.35 1019.46 1019.62 1019.91 1020.17 1020.45 1020.73 1020.82 1020.96 1021.06 1021.17 1021.21 1021.52 1021.97 1022.31 1022.74 1023.28 1023.90 1024.46 1024.94 1025.53
1012.43 1013.85 1014.88 1015.55 1016.06 1016.85 1016.45 1016.18 1015.79 1016.01 1016.04 1016.07 1016.29 1016.54 1016.48 1016.34 1016.14 1016.49 1017.59 1018.49 1019.04 1019.05 1019.02 1018.84 1018.54 1018.80 1019.00 1019.29 1019.60 1019.76 1019.76 1019.78 1019.90 1020.08 1020.09 1020.17 1020.64 1021.02 1021.17 1021.49 1021.54 1021.49 1021.38 1021.31 1021.52 1021.90 1022.30 1022.73 1023.12 1023.64 1024.17 1024.76 1025.33 1025.98
1014.47 1016.40 1016.74 1017.28 1017.16 1017.49 1017.89 1017.57 1017.36 1017.18 1017.44 1017.29 1017.28 1017.28 1017.14 1016.87 1017.13 1017.76 1018.55 1019.32 1019.66 1019.84 1019.86 1019.66 1019.39 1019.31 1019.74 1020.30 1020.73 1020.88 1020.84 1020.61 1020.69 1020.96 1021.31 1021.22 1021.48 1021.81 1022.03 1022.23 1022.28 1022.15 1021.94 1022.01 1022.42 1022.61 1022.92 1023.21 1023.60 1024.06 1024.57 1025.15 1025.97 1026.99
1016.67 1017.41 1017.78 1017.76 1017.97 1018.01 1018.17 1018.37 1018.04 1017.96 1018.09 1018.08 1018.23 1018.11 1017.89 1018.24 1018.67 1019.38 1019.79 1020.09 1020.44 1020.69 1020.73 1020.65 1020.52 1020.58 1020.91 1021.11 1021.46 1021.64 1021.73 1021.49 1021.50 1021.92 1022.49 1022.37 1022.40 1022.46 1022.72 1023.10 1023.10 1022.83 1022.51 1022.39 1022.81 1023.24 1023.54 1023.79 1024.18 1024.56 1025.10 1025.96 1026.86 1027.77
1018.05 1018.16 1017.97 1017.77 1017.91 1018.03 1018.48 1018.28 1018.09 1018.33 1018.50 1018.81 1018.72 1019.23 1019.20 1019.79 1020.20 1020.67 1020.86 1021.08 1021.32 1021.47 1021.37 1021.30 1021.20 1021.29 1021.63 1021.92 1022.07 1022.28 1022.28 1022.19 1022.40 1022.86 1023.11 1023.15 1023.24 1023.20 1023.08 1023.65 1023.83 1023.68 1023.21 1022.98 1023.24 1023.75 1024.29 1024.78 1025.26 1025.89 1026.63 1027.43 1028.09 1028.74
1018.14 1018.45 1018.84 1018.90 1018.77 1018.68 1019.26 1019.24 1019.00 1018.83 1018.67 1018.59 1018.91 1019.97 1020.38 1020.81 1021.43 1021.74 1021.74 1021.83 1021.77 1021.74 1021.80 1021.90 1021.88 1021.88 1022.07 1022.34 1022.63 1022.99 1023.37 1023.37 1023.41 1023.53 1023.76 1024.14 1024.31 1024.32 1024.34 1024.41 1024.39 1024.11 1023.80 1023.79 1024.11 1024.57 1025.11 1025.70 1026.39 1027.14 1027.82 1028.69 1029.61 1030.29
1018.88 1018.91 1019.22 1019.72 1019.60 1019.41 1019.34 1019.21 1019.07 1019.10 1019.09 1018.96 1019.51 1020.46 1021.25 1021.81 1022.44 1022.49 1022.59 1022.28 1022.20 1022.25 1022.38 1022.51 1022.62 1022.69 1022.93 1023.17 1023.49 1023.69 1023.86 1024.12 1024.47 1024.75 1025.00 1025.48 1025.56 1025.79 1025.51 1025.32 1025.22 1025.14 1025.18 1025.27 1025.58 1025.87 1026.26 1026.81 1027.63 1028.49 1029.34 1030.13 1031.02 1031.71
1019.28 1019.08 1019.83 1020.09 1020.51 1020.11 1019.71 1019.36 1019.40 1019.46 1019.49 1019.51 1020.03 1021.07 1021.94 1022.77 1023.45 1023.53 1023.37 1023.22 1023.17 1023.14 1022.91 1022.90 1023.10 1023.30 1023.83 1024.18 1024.45 1024.55 1024.50 1024.41 1024.47 1024.67 1025.24 1025.80 1026.01 1026.19 1026.11 1026.13 1026.23 1026.35 1026.47 1026.65 1027.09 1027.65 1027.90 1028.38 1029.15 1029.97 1030.89 1031.78 1032.52 1033.29
1019.14 1019.47 1019.93 1020.19 1020.28 1019.93 1019.70 1019.72 1019.71 1019.75 1019.97 1020.09 1020.41 1021.33 1022.67 1023.53 1024.19 1024.57 1024.46 1024.22 1023.89 1023.59 1023.63 1023.91 1023.99 1024.05 1024.14 1024.73 1024.92 1024.95 1025.25 1024.99 1024.54 1024.33 1024.61 1025.34 1025.98 1026.32 1026.56 1026.76 1026.96 1027.05 1027.42 1027.81 1028.27 1028.78 1029.30 1029.96 1030.68 1031.53 1032.41 1033.26 1034.09 1034.78
1019.83 1019.99 1020.23 1020.48 1020.63 1020.18 1019.99 1020.44 1020.32 1020.47 1020.72 1021.10 1021.32 1021.98 1023.13 1023.95 1024.87 1025.28 1025.04 1024.57 1024.40 1024.43 1024.57 1024.60 1024.87 1025.35 1025.29 1025.24 1025.17 1025.27 1025.39 1025.51 1025.38 1025.38 1025.53 1025.98 1026.48 1026.83 1027.02 1027.29 1027.59 1027.95 1028.46 1029.00 1029.54 1030.10 1030.63 1031.28 1032.16 1033.02 1033.89 1034.72 1035.46 1036.15
1020.33 1020.35 1020.47 1020.72 1020.76 1020.82 1020.83 1020.94 1020.98 1021.25 1021.37 1022.05 1022.38 1022.81 1023.55 1024.24 1025.11 1025.62 1025.34 1025.11 1025.09 1025.18 1025.17 1025.38 1025.62 1025.80 1025.99 1026.11 1026.27 1026.39 1026.43 1026.48 1026.31 1026.26 1026.52 1026.85 1027.18 1027.53 1027.93 1028.29 1028.64 1029.05 1029.53 1030.18 1030.81 1031.39 1032.04 1032.77 1033.58 1034.41 1035.18 1035.92 1036.64 1037.16
Thickness
5307 5313 5320 5327 5332 5337 5343 5349 5354 5360 5366 5370 5373 5377 5383 5388 5394 5400 5407 5413 5416 5423 5437 5450 5452 5448 5448 5447 5447 5443 5436 5432 5436 5449 5455 5463 5463 5477 5475 5486 5480 5472 5467 5453 5450 5459 5459 5470 5471 5459 5456 5451 5444 5429
5301 5308 5317 5324 5330 5335 5340 5345 5350 5356 5361 5364 5369 5375 5380 5386 5391 5396 5401 5415 5418 5420 5430 5441 5445 5452 5456 5453 5449 5447 5445 5442 5447 5449 5449 5456 5452 5460 5465 5446 5483 5468 5472 5457 5455 5454 5449 5456 5459 5455 5449 5437 5428 5423
5296 5306 5314 5322 5329 5334 5338 5343 5348 5353 5357 5362 5367 5372 5378 5385 5389 5392 5399 5411 5416 5421 5419 5427 5435 5444 5448 5448 5448 5436 5437 5449 5448 5454 5450 5452 5469 5459 5457 5452 5463 5470 5466 5441 5443 5439 5444 5448 5451 5443 5436 5424 5416 5413
5292 5303 5312 5321 5328 5333 5336 5341 5346 5349 5354 5360 5365 5372 5378 5385 5390 5396 5402 5415 5421 5418 5415 5415 5435 5442 5444 5446 5445 5446 5448 5450 5454 5451 5450 5450 5456 5464 5461 5468 5461 5463 5458 5439 5428 5435 5438 5441 5441 5429 5419 5413 5405 5397
5288 5301 5312 5321 5327 5333 5338 5341 5345 5349 5353 5358 5364 5371 5380 5388 5399 5402 5406 5414 5421 5425 5412 5417 5431 5435 5440 5444 5441 5442 5443 5445 5441 5443 5440 5445 5451 5459 5457 5457 5456 5463 5446 5432 5432 5440 5436 5431 5427 5421 5411 5403 5397 5391
5290 5303 5314 5320 5329 5335 5340 5342 5345 5349 5352 5357 5364 5371 5385 5394 5400 5399 5393 5412 5423 5429 5419 5404 5418 5425 5431 5434 5436 5437 5437 5436 5437 5437 5437 5444 5455 5451 5437 5438 5459 5459 5459 5457 5450 5442 5435 5427 5420 5415 5404 5397 5392 5384
5296 5307 5316 5324 5330 5339 5341 5342 5345 5349 5353 5357 5364 5372 5385 5399 5395 5404 5409 5417 5421 5426 5413 5399 5406 5418 5428 5425 5424 5428 5432 5432 5436 5434 5438 5440 5446 5448 5426 5437 5450 5451 5449 5444 5441 5433 5420 5417 5407 5408 5399 5394 5387 5377
5302 5311 5320 5325 5336 5339 5341 5343 5345 5348 5351 5359 5368 5380 5385 5394 5401 5407 5411 5418 5423 5422 5417 5394 5396 5407 5421 5411 5414 5420 5424 5426 5427 5430 5431 5436 5436 5436 5433 5445 5444 5441 5438 5435 5434 5431 5422 5413 5405 5399 5389 5381 5372 5363
5310 5319 5324 5333 5336 5338 5340 5343 5345 5348 5353 5361 5369 5379 5384 5391 5396 5403 5414 5419 5422 5419 5403 5394 5394 5389 5415 5409 5411 5416 5419 5407 5418 5421 5429 5429 5423 5426 5442 5441 5439 5438 5438 5432 5425 5419 5411 5404 5395 5386 5379 5370 5362 5352
5320 5325 5333 5335 5335 5337 5340 5341 5343 5348 5352 5362 5370 5375 5372 5383 5397 5406 5407 5404 5408 5409 5409 5396 5399 5400 5410 5404 5401 5406 5402 5403 5408 5416 5421 5411 5412 5438 5450 5445 5442 5437 5435 5427 5413 5404 5397 5391 5384 5378 5372 5364 5357 5347
5325 5333 5334 5334 5335 5336 5338 5340 5340 5346 5354 5363 5361 5364 5377 5388 5391 5386 5375 5385 5389 5397 5401 5399 5402 5401 5406 5400 5396 5401 5399 5400 5405 5414 5412 5407 5415 5426 5442 5439 5437 5433 5431 5424 5420 5411 5403 5393 5380 5370 5362 5355 5349 5342
5334 5333 5332 5332 5333 5335 5337 5339 5340 5345 5356 5366 5374 5374 5377 5376 5369 5372 5364 5382 5397 5396 5397 5394 5401 5403 5400 5405 5400 5397 5402 5395 5412 5402 5397 5396 5408 5433 5433 5431 5429 5427 5423 5417 5412 5403 5394 5386 5377 5367 5358 5349 5343 5338
5330 5330 5331 5331 5332 5333 5336 5339 5345 5351 5360 5366 5367 5360 5360 5347 5343 5348 5353 5380 5381 5385 5391 5394 5392 5396 5396 5395 5384 5393 5384 5380 5392 5375 5390 5400 5409 5424 5424 5422 5418 5418 5414 5410 5403 5396 5389 5378 5370 5363 5354 5347 5336 5327
5328 5327 5328 5329 5330 5332 5335 5340 5347 5354 5359 5352 5349 5340 5346 5331 5365 5374 5384 5378 5378 5379 5389 5386 5383 5388 5378 5383 5386 5377 5383 5391 5369 5379 5410 5392 5408 5410 5410 5410 5409 5402 5399 5396 5391 5384 5376 5369 5356 5348 5346 5339 5330 5318
5326 5325 5325 5325 5326 5331 5336 5343 5350 5354 5350 5344 5345 5333 5341 5357 5358 5364 5362 5363 5373 5383 5390 5383 5381 5383 5369 5372 5374 5375 5376 5378 5392 5395 5400 5386 5396 5399 5398 5396 5392 5388 5383 5379 5375 5367 5359 5352 5348 5333 5326 5328 5327 5314
5324 5323 5321 5323 5327 5333 5339 5344 5347 5349 5339 5338 5341 5340 5342 5341 5355 5353 5362 5368 5372 5372 5381 5382 5377 5371 5376 5377 5385 5381 5397 5386 5401 5394 5377 5379 5385 5383 5382 5379 5375 5373 5374 5369 5363 5358 5349 5345 5340 5330 5319 5314 5313 5311
5325 5323 5323 5327 5332 5338 5342 5342 5341 5335 5329 5333 5332 5342 5351 5343 5354 5356 5362 5364 5369 5374 5366 5371 5373 5387 5379 5380 5386 5382 5394 5390 5382 5376 5374 5372 5373 5375 5373 5371 5368 5360 5359 5356 5350 5346 5337 5333 5328 5323 5315 5304 5305 5301
5322 5323 5325 5327 5332 5335 5335 5335 5327 5325 5326 5327 5334 5341 5343 5346 5348 5346 5356 5360 5368 5366 5369 5381 5376 5383 5359 5379 5368 5381 5371 5365 5364 5363 5363 5363 5367 5367 5366 5364 5359 5351 5348 5343 5339 5332 5327 5326 5320 5314 5309 5300 5295 5292
5321 5323 5327 5329 5331 5329 5323 5325 5326 5320 5322 5327 5331 5334 5337 5339 5343 5347 5353 5360 5365 5368 5365 5362 5366 5372 5374 5371 5374 5367 5360 5359 5354 5352 5351 5353 5355 5356 5355 5354 5351 5348 5344 5338 5334 5326 5322 5319 5315 5309 5303 5297 5290 5286
5322 5324 5327 5330 5332 5326 5324 5319 5325 5321 5318 5323 5328 5331 5335 5337 5339 5345 5351 5355 5357 5355 5353 5357 5352 5350 5354 5353 5356 5354 5351 5350 5352 5349 5345 5343 5345 5346 5345 5344 5341 5338 5335 5332 5328 5323 5316 5310 5306 5301 5296 5290 5282 5276
5323 5324 5328 5330 5326 5322 5313 5314 5316 5317 5317 5319 5323 5326 5331 5334 5339 5343 5340 5345 5340 5341 5340 5338 5337 5336 5338 5341 5343 5345 5347 5351 5351 5349 5346 5341 5338 5338 5336 5334 5332 5329 5326 5322 5319 5314 5310 5305 5298 5295 5287 5279 5274 5270
5320 5325 5322 5322 5313 5313 5306 5310 5313 5314 5315 5317 5321 5325 5323 5326 5325 5331 5331 5329 5322 5321 5324 5326 5328 5330 5333 5332 5330 5335 5335 5340 5341 5339 5337 5335 5332 5330 5328 5326 5324 5320 5318 5316 5314 5310 5306 5301 5294 5287 5279 5270 5266 5262
5323 5321 5312 5308 5297 5291 5292 5305 5309 5312 5306 5313 5318 5318 5316 5313 5320 5327 5318 5314 5308 5311 5315 5316 5321 5324 5324 5324 5327 5328 5330 5331 5327 5327 5328 5327 5324 5321 5319 5316 5314 5313 5310 5308 5305 5302 5296 5288 5282 5276 5268 5262 5257 5250
5318 5304 5293 5287 5289 5274 5287 5286 5299 5303 5300 5307 5308 5306 5309 5309 5316 5320 5312 5304 5301 5303 5306 5310 5315 5317 5318 5316 5313 5314 5315 5316 5316 5315 5316 5317 5313 5309 5307 5303 5301 5300 5300 5298 5294 5287 5280 5274 5269 5262 5255 5247 5242 5234
5296 5282 5278 5262 5277 5275 5264 5266 5277 5289 5280 5293 5292 5293 5299 5310 5305 5305 5307 5298 5295 5293 5294 5300 5306 5310 5307 5301 5297 5298 5301 5305 5306 5303 5299 5301 5298 5294 5290 5287 5286 5286 5286 5283 5275 5272 5266 5262 5255 5249 5242 5235 5225 5213
5268 5269 5276 5266 5264 5275 5279 5271 5269 5273 5273 5277 5280 5289 5289 5287 5286 5291 5292 5284 5284 5284 5284 5287 5290 5293 5290 5291 5288 5287 5288 5291 5292 5287 5283 5284 5283 5280 5273 5267 5266 5270 5272 5269 5263 5257 5252 5248 5244 5238 5231 5220 5208 5198
5259 5259 5281 5287 5285 5288 5271 5274 5287 5273 5268 5268 5270 5269 5267 5267 5273 5278 5274 5272 5273 5271 5277 5279 5281 5282 5280 5279 5279 5278 5278 5279 5278 5275 5272 5271 5269 5268 5268 5259 5257 5258 5257 5255 5251 5245 5238 5231 5224 5216 5206 5198 5190 5183
5266 5269 5259 5258 5261 5271 5253 5249 5255 5263 5285 5288 5277 5264 5268 5273 5270 5261 5262 5263 5263 5269 5270 5270 5271 5272 5272 5271 5269 5268 5264 5263 5263 5262 5259 5256 5253 5251 5249 5247 5244 5245 5244 5242 5236 5229 5221 5213 5205 5197 5190 5181 5171 5163
5256 5262 5258 5247 5252 5258 5256 5268 5273 5273 5274 5277 5269 5263 5268 5259 5253 5257 5254 5258 5262 5263 5263 5262 5263 5263 5261 5260 5257 5256 5254 5252 5247 5237 5232 5228 5226 5231 5232 5231 5230 5228 5225 5221 5216 5210 5204 5197 5188 5180 5171 5162 5153 5145
5262 5259 5245 5234 5236 5252 5264 5267 5268 5265 5266 5268 5264 5257 5252 5247 5242 5243 5247 5249 5251 5254 5255 5256 5253 5251 5247 5242 5239 5242 5243 5242 5240 5236 5228 5219 5220 5219 5218 5216 5213 5210 5206 5202 5196 5189 5184 5177 5170 5162 5153 5144 5135 5126
5261 5256 5248 5239 5242 5262 5262 5261 5263 5264 5263 5265 5263 5260 5241 5236 5233 5233 5234 5237 5239 5242 5245 5241 5242 5242 5243 5234 5230 5229 5227 5231 5233 5234 5230 5223 5216 5211 5207 5203 5199 5196 5191 5186 5180 5174 5167 5160 5152 5144 5135 5126 5117 5109
5255 5262 5256 5262 5253 5253 5253 5243 5259 5245 5243 5239 5239 5238 5236 5231 5225 5222 5227 5231 5232 5233 5231 5230 5230 5225 5226 5226 5226 5225 5223 5220 5219 5217 5214 5209 5204 5199 5195 5191 5186 5182 5176 5170 5164 5158 5152 5145 5136 5127 5118 5109 5100 5092
5252 5248 5247 5253 5254 5253 5249 5243 5247 5246 5238 5237 5236 5233 5228 5227 5218 5214 5219 5222 5221 5220 5221 5219 5217 5216 5215 5213 5211 5209 5208 5206 5205 5203 5199 5195 5191 5187 5182 5177 5173 5168 5162 5156 5149 5143 5136 5128 5119 5111 5102 5094 5086 5078